User: anonymous   Login
Location: Raven Hill Discovery Center
(45.1336°N, 85.0553°W)
Time: 06:25:25
(UTC-04:00)
Language:

Cosmos 1470 - Orbit

View from above orbital plane
View from above orbital plane
View from above satellite
View from above satellite

Ground track
Ground track

The orbit data is extracted from the following two-line orbital elements,

1 14147U 83061A   16176.10512585  .00000071  00000-0  24357-5 0  9997
2 14147  82.4827  30.4858 0016740  53.5170 306.7599 15.10182107550765
Epoch (UTC): 24 June 2016 02:31:22
Eccentricity: 0.0016740
inclination: 82.4827°
perigee height: 524 km
apogee height: 547 km
right ascension of ascending node: 30.4858°
argument of perigee: 53.5170°
revolutions per day: 15.10182107
mean anomaly at epoch: 306.7599°
orbit number at epoch: 55076

The dashed part of the orbit path shows where the satellite is in the earth's shadow,  

DLR